Location: Olmo
(42.4954°N, 9.4070°E)
Time: 03:16:04
(UTC+00:00)

Daily predictions for brighter satellites

Satellite Brightness Start Highest point End
(mag) Time Altitude Azimuth Time Altitude Azimuth Time Altitude Azimuth
CENTAUR R/B 4.2 02:03:00 29° ENE 02:03:00 29° ENE 02:06:28 10° NE
Cosmos 2344 3.8 02:37:40 60° NNE 02:37:40 60° NNE 02:44:09 10° NE
Lacrosse 4 Rocket 4.5 02:42:02 10° NE 02:42:02 10° NE 02:42:06 10° NE
COSMOS 2406 4.4 02:39:30 38° E 02:39:30 38° E 02:43:56 10° NE
USA 238 DEB 4.4 02:41:03 43° NNE 02:41:03 43° NNE 02:45:38 10° NNE
USA 238 4.4 02:41:08 43° NNE 02:41:08 43° NNE 02:45:44 10° NNE
Lacrosse 5 rocket 4.4 02:50:06 12° ENE 02:50:06 12° ENE 02:50:23 10° ENE
ATLAS 3B R/B 4.0 02:45:38 24° SSE 02:48:21 32° ESE 02:54:06 10° NE
Cosmos 1980 Rocket 4.4 02:55:35 10° N 02:59:52 22° NE 03:04:07 10° E
USA 234 4.2 02:54:06 10° NE 02:59:22 35° N 02:59:22 35° N
ADEOS Rocket 3.4 02:55:09 10° SE 03:00:27 52° ENE 03:05:52 10° N
Cosmos 44 Rocket 4.1 03:14:19 48° SE 03:14:19 48° SE 03:18:02 10° SE
CZ-4B R/B 3.3 03:31:56 10° SE 03:35:00 30° ENE 03:37:09 16° NNE
Cosmos 1833 Rocket 2.6 03:33:50 56° SSW 03:35:07 89° ESE 03:40:49 10° NNE
ALOS 3.5 03:31:40 10° NNE 03:36:06 41° E 03:40:30 10° SSE
SL-14 R/B 4.3 03:35:00 10° SSE 03:38:47 45° E 03:42:39 10° NNE
Cosmos 1626 2.8 03:39:54 51° ENE 03:39:54 51° ENE 03:43:06 10° NNE
NOSS 3-2 (C) 4.0 03:43:21 38° NW 03:43:21 38° NW 03:49:27 10° NNE
CENTAUR R/B 3.1 03:50:11 37° NW 03:50:53 38° NW 03:57:27 10° NNE
Cosmos 2369 3.7 03:49:30 13° NNW 03:54:37 84° ENE 04:00:16 10° SSE
Meteor 1-24 Rocket 4.2 03:49:16 10° S 03:54:46 63° E 04:00:32 10° NNE
Cosmos 1656 3.9 03:55:16 45° WSW 03:55:16 45° WSW 04:00:28 10° S
Cosmos 2082 Rocket 2.2 03:52:26 10° SSW 03:58:02 78° ESE 04:03:40 10° NNE
Cosmos 1484 Rocket 3.0 03:54:44 10° NNE 03:58:35 68° ESE 04:02:20 10° S
Cosmos 1461 3.0 03:57:49 56° WSW 03:58:41 73° NW 04:03:23 10° NNE
CBERS 1 LM4 rocket 4.2 03:54:25 10° N 03:59:17 69° WNW 04:02:24 21° SSW
Cosmos 1892 Rocket 4.4 03:56:10 10° SSE 04:00:21 50° E 04:04:36 10° NNE
USA 290 2.1 04:06:41 77° S 04:06:53 86° ESE 04:10:08 10° NNE
SL-16 R/B 4.4 04:03:32 10° N 04:07:58 23° NE 04:12:23 10° ESE
CZ-2C R/B 2.8 04:03:58 10° N 04:08:35 39° WNW 04:08:51 39° WNW
ISS -2.9 04:09:06 37° N 04:09:06 37° N 04:11:57 10° NE
Cosmos 2251 Rocket 3.5 04:03:53 10° SSW 04:09:15 87° ESE 04:14:38 10° NNE
SKYMED 2 4.5 04:12:09 10° SSE 04:16:21 51° ENE 04:20:34 10° N
Lacrosse 4 Rocket 3.2 04:18:22 16° NNW 04:18:22 16° NNW 04:19:55 10° N
Cosmos 1697 Rocket 2.8 04:16:50 14° NW 04:21:29 51° WSW 04:26:55 10° S
COSMOS 2406 3.9 04:21:37 28° W 04:23:03 31° NW 04:28:05 10° N
Meteor 1-31 Rocket 2.7 04:19:23 10° N 04:23:20 83° WNW 04:27:16 10° SSW
[s.n.46727] 3.2 04:25:26 40° NNW 04:25:26 40° NNW 04:27:55 10° NE
[s.n.46723] 3.1 04:25:27 41° NNW 04:25:27 41° NNW 04:28:02 10° NE
[s.n.46707] 3.2 04:25:36 40° NNW 04:25:36 40° NNW 04:28:06 10° NE
[s.n.46708] 3.2 04:25:41 40° NNW 04:25:41 40° NNW 04:28:11 10° NE
[s.n.46719] 3.2 04:25:47 40° NNW 04:25:47 40° NNW 04:28:17 10° NE
[s.n.46724] 3.2 04:25:52 40° NNW 04:25:52 40° NNW 04:28:22 10° NE
[s.n.46687] 3.2 04:25:57 40° NNW 04:25:57 40° NNW 04:28:27 10° NE
[s.n.46696] 3.2 04:26:02 40° NNW 04:26:02 40° NNW 04:28:33 10° NE
[s.n.46720] 3.2 04:26:08 40° NNW 04:26:08 40° NNW 04:28:38 10° NE
[s.n.46676] 3.2 04:26:12 40° NNW 04:26:12 40° NNW 04:28:44 10° NE
Lacrosse 5 rocket 2.1 04:25:46 27° NW 04:26:07 27° NNW 04:29:24 10° NNE
[s.n.46721] 3.2 04:26:18 39° NNW 04:26:18 39° NNW 04:28:48 10° NE
[s.n.46728] 3.2 04:26:23 39° NNW 04:26:23 39° NNW 04:28:54 10° NE
Meteor 2-5 Rocket 3.8 04:20:45 10° SSW 04:26:18 55° WNW 04:32:02 10° N
[s.n.46690] 3.2 04:26:28 39° NNW 04:26:28 39° NNW 04:28:59 10° NE
[s.n.46694] 3.2 04:26:32 39° NNW 04:26:32 39° NNW 04:29:03 10° NE
[s.n.46702] 3.2 04:26:39 39° NNW 04:26:39 39° NNW 04:29:10 10° NE
[s.n.46679] 3.2 04:26:42 39° NNW 04:26:42 39° NNW 04:29:14 10° NE
[s.n.46704] 3.2 04:26:44 40° NNW 04:26:44 40° NNW 04:29:21 10° NE
[s.n.46712] 3.2 04:26:50 39° NNW 04:26:50 39° NNW 04:29:23 10° NE
[s.n.46711] 3.2 04:26:59 39° NNW 04:26:59 39° NNW 04:29:32 10° NE
[s.n.46684] 3.2 04:27:01 39° NNW 04:27:01 39° NNW 04:29:33 10° NE
[s.n.46706] 3.2 04:27:09 39° NNW 04:27:09 39° NNW 04:29:42 10° NE
[s.n.46678] 3.2 04:27:07 40° NNW 04:27:07 40° NNW 04:29:46 10° NE
[s.n.46677] 3.2 04:27:17 39° NNW 04:27:17 39° NNW 04:29:50 10° NE
[s.n.46671] 3.2 04:27:22 39° NNW 04:27:22 39° NNW 04:29:55 10° NE
[s.n.46675] 3.2 04:27:27 39° NNW 04:27:27 39° NNW 04:30:01 10° NE
[s.n.46674] 3.2 04:27:33 39° NNW 04:27:33 39° NNW 04:30:06 10° NE
[s.n.46698] 3.2 04:27:38 39° NNW 04:27:38 39° NNW 04:30:12 10° NE
[s.n.46699] 3.2 04:27:39 39° NNW 04:27:39 39° NNW 04:30:19 10° NE
[s.n.46715] 3.2 04:27:48 38° NNW 04:27:48 38° NNW 04:30:23 10° NE
[s.n.46714] 3.2 04:27:53 38° NNW 04:27:53 38° NNW 04:30:28 10° NE
[s.n.46726] 3.2 04:27:59 38° NNW 04:27:59 38° NNW 04:30:33 10° NE
[s.n.46703] 3.2 04:28:04 38° NNW 04:28:04 38° NNW 04:30:38 10° NE
CZ-4B R/B 3.5 04:24:02 10° NNE 04:28:04 61° ESE 04:32:18 10° S
[s.n.46713] 3.2 04:28:09 38° NNW 04:28:09 38° NNW 04:30:44 10° NE
[s.n.46717] 3.2 04:28:15 38° NNW 04:28:15 38° NNW 04:30:50 10° NE
[s.n.46691] 3.2 04:28:16 39° NNW 04:28:17 39° NNW 04:30:57 10° NE
[s.n.46693] 3.2 04:28:25 38° NNW 04:28:25 38° NNW 04:31:01 10° NE
[s.n.46672] 3.2 04:28:31 38° NNW 04:28:31 38° NNW 04:31:07 10° NE
[s.n.46701] 3.2 04:28:36 38° NNW 04:28:36 38° NNW 04:31:12 10° NE
[s.n.46685] 3.2 04:28:41 38° NNW 04:28:41 38° NNW 04:31:17 10° NE
[s.n.46709] 3.2 04:28:46 38° NNW 04:28:46 38° NNW 04:31:22 10° NE
[s.n.46683] 3.2 04:28:50 38° NNW 04:28:50 38° NNW 04:31:27 10° NE
[s.n.46695] 3.2 04:28:55 38° NNW 04:28:55 38° NNW 04:31:33 10° NE
[s.n.46688] 3.2 04:29:01 38° NNW 04:29:02 38° NNW 04:31:39 10° NE
[s.n.46729] 3.2 04:29:06 38° NNW 04:29:07 38° NNW 04:31:44 10° NE
[s.n.46697] 3.2 04:29:09 37° NNW 04:29:10 37° NNW 04:31:47 10° NE
[s.n.46725] 3.2 04:29:13 37° NNW 04:29:15 37° NNW 04:31:51 10° NE
[s.n.46682] 3.2 04:29:19 37° NNW 04:29:20 37° NNW 04:31:57 10° NE
[s.n.46680] 3.2 04:29:24 37° NNW 04:29:26 37° NNW 04:32:03 10° NE
[s.n.46718] 3.2 04:29:30 37° NNW 04:29:32 37° NNW 04:32:08 10° NE
[s.n.46710] 3.2 04:29:35 37° NNW 04:29:37 37° NNW 04:32:14 10° NE
[s.n.46673] 3.2 04:29:46 37° NNW 04:29:48 37° NNW 04:32:24 10° NE
[s.n.46700] 3.2 04:29:51 37° NNW 04:29:54 37° NNW 04:32:30 10° NE
[s.n.46705] 3.2 04:29:56 37° NNW 04:30:00 37° NNW 04:32:36 10° NE
[s.n.46692] 3.2 04:30:02 37° NW 04:30:05 37° NNW 04:32:42 10° NE
[s.n.46686] 3.2 04:30:07 37° NW 04:30:10 37° NNW 04:32:47 10° NE
[s.n.46716] 3.2 04:30:12 37° NW 04:30:16 37° NNW 04:32:52 10° NE
[s.n.46722] 3.2 04:30:17 37° NW 04:30:21 37° NNW 04:32:57 10° NE
[s.n.46689] 3.2 04:30:23 36° NW 04:30:27 37° NNW 04:33:03 10° NE
[s.n.46681] 3.2 04:30:28 36° NW 04:30:33 36° NNW 04:33:08 10° NE
FENGYUN 3A 3.7 04:25:22 10° N 04:30:44 60° WNW 04:36:04 10° SSW
SAR-Lupe-4 3.5 04:32:43 10° S 04:36:16 61° W 04:39:49 10° NNW
ERS-2 3.0 04:35:01 10° SSW 04:38:11 27° W 04:39:17 23° WNW
ATLAS 3B R/B 2.8 04:33:00 13° WSW 04:38:44 52° NW 04:45:14 10° NNE
Cosmos 1726 Rocket 3.7 04:36:38 10° NNW 04:40:56 50° W 04:45:15 10° SSW
Cosmos 1980 Rocket 2.2 04:38:47 10° NNW 04:44:19 63° WSW 04:49:50 10° S
ATLAS CENTAUR R/B 3.2 04:40:56 10° S 04:44:27 31° ESE 04:47:49 10° NE
Geosat 4.5 04:40:40 10° S 04:45:20 39° WSW 04:50:03 10° NW
Abrixas rocket 1.7 04:43:59 26° WNW 04:45:26 85° NNE 04:48:16 10° ESE
Cosmos 1092 Rocket 4.1 04:39:34 10° SSW 04:45:33 52° WNW 04:51:38 10° N
Cosmos 2228 3.7 04:42:07 10° NNW 04:45:59 32° W 04:49:52 10° SSW
ADEOS Rocket 3.9 04:42:28 10° SW 04:46:24 20° W 04:50:23 10° NW
Cosmos 407 Rocket 3.8 04:46:22 10° S 04:51:26 69° ESE 04:56:34 10° NNE
ADEOS 4.1 04:46:52 10° N 04:51:39 37° WNW 04:56:24 10° SW
Cosmos 1140 Rocket 4.2 04:49:10 10° S 04:54:11 58° ESE 04:59:13 10° NNE
Aureole 3 3.9 04:50:20 10° NNW 04:54:34 57° W 04:59:57 10° S
CZ-3 R/B 3.7 04:35:59 11° WSW 04:55:38 38° SSW 05:02:07 10° SE
Cosmos 1606 Rocket 4.5 04:52:54 10° NNW 04:56:39 27° W 05:00:23 10° SW
Cosmos 1400 Rocket 3.3 04:53:48 10° NNW 04:57:25 35° W 05:00:58 10° SSW
GRACE-FO 1 4.5 04:57:01 10° S 05:00:41 82° W 05:04:21 10° N
GRACE-FO 2 4.5 04:57:25 10° S 05:01:04 81° W 05:04:44 10° N
COSMO-SKYMED 1 2.8 05:00:13 10° S 05:04:24 47° W 05:08:37 10° NNW
CZ-4B R/B 3.1 05:05:12 10° SW 05:07:18 15° W 05:09:25 10° NW
Cosmos 2292 Rocket 3.4 05:05:39 10° S 05:08:41 64° E 05:12:20 10° NNE
Cosmos 1655 Rocket 4.3 05:03:07 10° S 05:09:21 76° E 05:15:42 10° N
S3M 4.3 05:03:10 10° N 05:09:30 77° E 05:15:52 10° SSE
Cosmos 1300 4.1 05:08:04 10° NW 05:10:46 19° W 05:13:27 10° SW
ALOS 3.4 05:09:41 10° NNW 05:13:14 22° WNW 05:16:46 10° WSW
Cosmos 1689 Rocket 3.1 05:11:24 10° SSW 05:13:54 25° W 05:16:24 10° NW
Cosmos 2278 4.4 05:09:34 10° NW 05:14:36 34° WSW 05:19:36 10° SSW
Meteor 2-10 Rocket 3.4 05:10:48 10° NNW 05:15:47 66° W 05:20:51 10° S
Cosmos 2322 Rocket 2.9 05:10:48 10° NNW 05:16:23 57° ENE 05:21:56 10° SE
MOS 1 Rocket 3.5 05:15:23 10° SSE 05:19:38 69° ENE 05:23:55 10° N
Cosmos 1833 Rocket 4.2 05:16:22 10° W 05:19:52 16° NW 05:23:23 10° N
NOAA 6 4.3 05:16:58 10° NNE 05:22:09 76° ESE 05:27:16 10° S
Cosmos 2084 4.4 05:20:33 10° WSW 05:24:22 29° NW 05:28:14 10° NNE
